Location: Seattle
(47.6064°N, 122.3308°W)
Time: 04:38:45
(UTC-08:00)

S-56A Canister/Altair - Pass Details

Date: 01 December 2020
Orbit: 633 x 2499 km, 38.9° (Epoch: 23 January)

Event Time Altitude Azimuth Distance (km) Brightness Sun altitude
Rises 17:55:02 0° 220° (SW) 6,017 13.1 -15.5°
Reaches altitude 10° 17:59:44 10° 213° (SSW) 4,836 12.3 -16.2°
Maximum altitude 18:10:46 34° 156° (SSE) 2,757 10.2 -18.0°
Enters shadow 18:16:27 20° 109° (ESE) 3,073 10.1 -19.0°
Drops below altitude 10° 18:18:57 10° 97° (E) 3,567 - -19.4°
Sets 18:21:50 0° 88° (E) 4,294 - -19.8°
